sat.trackr.live / text

‹ back to catalog

STARLINK-37314

NORAD 68740 · 2026-082N

PAYLOAD ACTIVE UNKNOWN

§ Identity

Operator
Country
US
Launch date
2026-04-15
Launch site
AFWTR
Launch vehicle
Mass (kg)
RCS (m²)

Purposes: comms

External: N2YO · Heavens-Above · Gunter

§ Orbital elements

Epoch: 2026-09-19T21:34:37.743744Z

Period
93.91 min
Inclination
97.2865°
Eccentricity
0.0002185
Mean motion
15.33458621 rev/d
Perigee alt
464.0 km
Apogee alt
467.0 km
Semi-major
6,843.6 km
B*
5.5961e-4
RAAN
125.0618°
Arg perigee
93.0714°
Mean anomaly
267.0778°
Rev number
2,421

§ Raw data

STARLINK-373141 68740U 26082N   26262.89904796  .00018043  00000+0  55961-3 0  99972 68740  97.2865 125.0618 0002185  93.0714 267.0778 15.33458621 24211

JSON: /api/v1/satellites/68740 · /tle

For live sub-satellite position, see the globe view (requires WebGL).

§ Visibility from observer

Set your observer location to see the next 7 days of passes ≥ 10°. The values pass through the URL so the page stays shareable.

No JS? Fill the form by hand. The geolocation button needs JavaScript.